Location: La Chapelle
(48.3135°N, 1.3085°W)
Time: 02:04:58
(UTC+00:00)

Okean 3 - Pass Details

Date: 03 March 2021
Orbit: 577 x 600 km, 82.5° (Epoch: 16 April)

Event Time Altitude Azimuth Distance (km) Brightness Sun altitude
Rises 20:12:33 0° 347° (NNW) 2,833 7.4 -23.8°
Reaches altitude 10° 20:14:46 10° 345° (NNW) 1,931 6.5 -24.1°
Maximum altitude 20:18:59 64° 264° (W) 661 3.8 -24.8°
Enters shadow 20:19:35 56° 221° (SW) 709 3.8 -24.9°
